Weather History for Sturgeon Bay, WI

Change the Weather History Date:

Friday, February 1, 2013

  Actual Average Record
Temperature  
Mean Temperature 3 °F -  
Max Temperature 6 °F 28 °F 47 °F (1993)
Min Temperature 0 °F 11 °F -26 °F (1918)
Degree Days  
Heating Degree Days 62    
Moisture  
Dew Point -7 °F    
Average Humidity 67    
Maximum Humidity 78    
Minimum Humidity 56    
Precipitation  
Precipitation 0.00 in - - ()
Sea Level Pressure  
Sea Level Pressure 30.10 in    
Wind  
Wind Speed 12 mph (West)    
Max Wind Speed 16 mph    
Max Gust Speed 23 mph    
Visibility 10 miles    
Events      
Averages and records for this station are not official NWS values.
T = Trace of Precipitation, MM = Missing Value Source: NWS Daily Summary

Daily Weather History Graph

Daily Weather History Graph

Search for Another Location

Airport:

Trip Planner

Search our weather history database for the weather conditions in past years. The results will help you decide how hot, cold, wet, or windy it might be!

Date:

Astronomy

Feb. 01, 2013 Rise Set
Actual Time 7:08 AM CST 4:58 PM CST
Civil Twilight 6:37 AM CST 5:29 PM CST
Nautical Twilight 6:02 AM CST 6:04 PM CST
Astronomical Twilight 5:28 AM CST 6:38 PM CST
Moon 11:24 PM CST (2/1) 9:24 AM CST (2/1)
Length of Visible Light 10h 51m
Length of Day
9h 49m
Waning Gibbous, 70% of the Moon is Illuminated
Feb 1
Waning Gibbous
Feb 3
Last Quarter
Feb 10
New
Feb 17
First Quarter
Feb 25
Full

Hourly Weather History & Observations

Time (CST) Temp. Windchill Dew Point Humidity Pressure Visibility Wind Dir Wind Speed Gust Speed Precip Events Conditions
12:15 AM 6.8 °F -6.9 °F -2.2 °F 67% 29.98 in 10.0 mi West 9.2 mph - N/A   Partly Cloudy
12:35 AM 5.0 °F -10.8 °F -2.2 °F 72% 29.99 in 10.0 mi West 11.5 mph 16.1 mph N/A   Partly Cloudy
12:55 AM 5.0 °F -10.8 °F -2.2 °F 72% 29.99 in 10.0 mi West 11.5 mph - N/A   Partly Cloudy
1:15 AM 3.2 °F -13.1 °F -2.2 °F 78% 30.00 in 10.0 mi West 11.5 mph 18.4 mph N/A   Partly Cloudy
1:35 AM 3.2 °F -13.1 °F -2.2 °F 78% 30.01 in 10.0 mi West 11.5 mph 18.4 mph N/A   Scattered Clouds
1:55 AM 3.2 °F -13.9 °F -2.2 °F 78% 30.01 in 10.0 mi West 12.7 mph - N/A   Partly Cloudy
2:15 AM 3.2 °F -13.9 °F -2.2 °F 78% 30.02 in 10.0 mi West 12.7 mph - N/A   Clear
2:35 AM 3.2 °F -13.1 °F -4.0 °F 72% 30.02 in 10.0 mi West 11.5 mph - N/A   Mostly Cloudy
2:55 AM 3.2 °F -15.3 °F -2.2 °F 78% 30.03 in 10.0 mi West 15.0 mph - N/A   Overcast
3:15 AM 3.2 °F -12.2 °F -2.2 °F 78% 30.04 in 10.0 mi West 10.4 mph - N/A   Overcast
3:35 AM 3.2 °F -14.6 °F -4.0 °F 72% 30.04 in 10.0 mi West 13.8 mph 20.7 mph N/A   Overcast
4:15 AM 3.2 °F -14.6 °F -5.8 °F 66% 30.06 in 10.0 mi West 13.8 mph 20.7 mph N/A   Overcast
4:35 AM 1.4 °F -17.6 °F -5.8 °F 72% 30.07 in 10.0 mi West 15.0 mph 19.6 mph N/A   Scattered Clouds
4:55 AM 1.4 °F -16.1 °F -4.0 °F 78% 30.08 in 10.0 mi West 12.7 mph 20.7 mph N/A   Mostly Cloudy
5:15 AM 1.4 °F -18.2 °F -5.8 °F 72% 30.09 in 10.0 mi West 16.1 mph 19.6 mph N/A   Overcast
5:35 AM 3.2 °F -13.1 °F -2.2 °F 78% 30.09 in 10.0 mi WNW 11.5 mph - N/A   Overcast
5:55 AM 1.4 °F -15.3 °F -5.8 °F 72% 30.10 in 10.0 mi West 11.5 mph - N/A   Overcast
6:15 AM 1.4 °F -16.9 °F -5.8 °F 72% 30.11 in 10.0 mi West 13.8 mph 18.4 mph N/A   Mostly Cloudy
6:35 AM 1.4 °F -17.6 °F -5.8 °F 72% 30.11 in 10.0 mi WNW 15.0 mph 20.7 mph N/A   Mostly Cloudy
6:55 AM 1.4 °F -17.6 °F -7.6 °F 66% 30.12 in 10.0 mi WNW 15.0 mph - N/A   Overcast
7:15 AM -0.4 °F -19.9 °F -7.6 °F 72% 30.13 in 10.0 mi WNW 15.0 mph 18.4 mph N/A   Overcast
7:35 AM -0.4 °F -18.4 °F -7.6 °F 72% 30.14 in 10.0 mi WNW 12.7 mph - N/A   Overcast
7:55 AM -0.4 °F -17.6 °F -7.6 °F 72% 30.14 in 10.0 mi West 11.5 mph - N/A   Scattered Clouds
8:15 AM -0.4 °F -15.7 °F -7.6 °F 72% 30.15 in 10.0 mi West 9.2 mph - N/A   Clear
8:35 AM -0.4 °F -14.7 °F -9.4 °F 66% 30.15 in 10.0 mi West 8.1 mph - N/A   Clear
8:55 AM -0.4 °F -13.4 °F -7.6 °F 72% 30.15 in 10.0 mi West 6.9 mph - N/A   Clear
9:15 AM -0.4 °F -18.4 °F -7.6 °F 72% 30.15 in 10.0 mi West 12.7 mph - N/A   Clear
9:35 AM -0.4 °F -18.4 °F -7.6 °F 72% 30.15 in 10.0 mi WNW 12.7 mph 16.1 mph N/A   Clear
9:55 AM 1.4 °F -13.5 °F -7.6 °F 66% 30.16 in 10.0 mi West 9.2 mph - N/A   Clear
10:15 AM 1.4 °F -16.1 °F -9.4 °F 61% 30.16 in 10.0 mi West 12.7 mph - N/A   Clear
10:35 AM 1.4 °F -16.1 °F -7.6 °F 66% 30.16 in 10.0 mi West 12.7 mph - N/A   Clear
10:55 AM 1.4 °F -15.3 °F -7.6 °F 66% 30.16 in 10.0 mi West 11.5 mph - N/A   Clear
11:15 AM 1.4 °F -14.5 °F -7.6 °F 66% 30.16 in 10.0 mi West 10.4 mph - N/A   Clear
11:35 AM 3.2 °F -13.9 °F -5.8 °F 66% 30.15 in 10.0 mi WSW 12.7 mph - N/A   Clear
11:55 AM 3.2 °F -13.9 °F -7.6 °F 61% 30.15 in 10.0 mi WSW 12.7 mph - N/A   Clear
12:15 PM 1.4 °F -14.5 °F -7.6 °F 66% 30.14 in 10.0 mi WSW 10.4 mph - N/A   Clear
12:35 PM 3.2 °F -13.9 °F -7.6 °F 61% 30.14 in 10.0 mi WSW 12.7 mph - N/A   Clear
12:55 PM 3.2 °F -14.6 °F -5.8 °F 66% 30.13 in 10.0 mi WSW 13.8 mph - N/A   Clear
1:15 PM 3.2 °F -15.3 °F -7.6 °F 61% 30.13 in 10.0 mi WSW 15.0 mph - N/A   Clear
1:35 PM 3.2 °F -14.6 °F -7.6 °F 61% 30.13 in 10.0 mi WSW 13.8 mph 18.4 mph N/A   Clear
2:15 PM 3.2 °F -14.6 °F -7.6 °F 61% 30.12 in 10.0 mi WSW 13.8 mph - N/A   Clear
2:35 PM 3.2 °F -14.6 °F -7.6 °F 61% 30.12 in 10.0 mi WSW 13.8 mph - N/A   Clear
2:55 PM 1.4 °F -16.9 °F -7.6 °F 66% 30.12 in 10.0 mi WSW 13.8 mph - N/A   Clear
3:15 PM 1.4 °F -18.2 °F -9.4 °F 61% 30.12 in 10.0 mi WSW 16.1 mph - N/A   Clear
3:35 PM 1.4 °F -16.1 °F -7.6 °F 66% 30.11 in 10.0 mi WSW 12.7 mph - N/A   Clear
4:15 PM 1.4 °F -16.9 °F -9.4 °F 61% 30.11 in 10.0 mi WSW 13.8 mph - N/A   Clear
4:35 PM 1.4 °F -16.9 °F -9.4 °F 61% 30.11 in 10.0 mi WSW 13.8 mph 19.6 mph N/A   Clear
4:55 PM -0.4 °F -17.6 °F - N/A% 30.11 in 10.0 mi WSW 11.5 mph 17.3 mph N/A   Clear
5:15 PM -0.4 °F -20.5 °F -9.4 °F 66% 30.11 in 10.0 mi WSW 16.1 mph 19.6 mph N/A   Clear
5:35 PM 1.4 °F -16.9 °F -9.4 °F 61% 30.11 in 10.0 mi WSW 13.8 mph 21.9 mph N/A   Clear
5:55 PM 1.4 °F -16.9 °F - N/A% 30.11 in 10.0 mi WSW 13.8 mph 21.9 mph N/A   Clear
6:15 PM 1.4 °F -16.1 °F -9.4 °F 61% 30.11 in 10.0 mi WSW 12.7 mph - N/A   Scattered Clouds
6:35 PM 1.4 °F -18.2 °F -9.4 °F 61% 30.11 in 10.0 mi WSW 16.1 mph - N/A   Mostly Cloudy
6:55 PM 1.4 °F -16.1 °F -11.2 °F 56% 30.11 in 10.0 mi WSW 12.7 mph 23.0 mph N/A   Overcast
7:15 PM 1.4 °F -17.6 °F -9.4 °F 61% 30.11 in 10.0 mi West 15.0 mph 21.9 mph N/A   Overcast
7:35 PM 1.4 °F -16.1 °F -9.4 °F 61% 30.11 in 10.0 mi West 12.7 mph - N/A   Overcast
7:55 PM 1.4 °F -18.2 °F -9.4 °F 61% 30.11 in 10.0 mi West 16.1 mph - N/A   Overcast
8:15 PM 1.4 °F -14.5 °F -9.4 °F 61% 30.10 in 10.0 mi West 10.4 mph - N/A   Overcast
8:35 PM 1.4 °F -16.9 °F -9.4 °F 61% 30.10 in 10.0 mi West 13.8 mph - N/A   Overcast
8:55 PM 1.4 °F -16.1 °F -7.6 °F 66% 30.10 in 10.0 mi West 12.7 mph 17.3 mph N/A   Overcast
9:15 PM 1.4 °F -16.9 °F -9.4 °F 61% 30.11 in 10.0 mi West 13.8 mph - N/A   Overcast
9:35 PM 1.4 °F -13.5 °F -7.6 °F 66% 30.11 in 10.0 mi West 9.2 mph - N/A   Overcast
9:55 PM 1.4 °F -13.5 °F -9.4 °F 61% 30.11 in 10.0 mi West 9.2 mph - N/A   Overcast
10:15 PM 1.4 °F -13.5 °F -7.6 °F 66% 30.10 in 10.0 mi West 9.2 mph - N/A   Overcast
10:35 PM 1.4 °F -13.5 °F -9.4 °F 61% 30.10 in 10.0 mi West 9.2 mph - N/A   Overcast
10:55 PM 1.4 °F -12.5 °F -7.6 °F 66% 30.10 in 10.0 mi West 8.1 mph - N/A   Overcast
11:15 PM 1.4 °F -11.3 °F -7.6 °F 66% 30.10 in 10.0 mi West 6.9 mph - N/A   Overcast
11:35 PM 1.4 °F -13.5 °F -9.4 °F 61% 30.09 in 10.0 mi West 9.2 mph - N/A   Overcast
11:55 PM 1.4 °F -13.5 °F -7.6 °F 66% 30.09 in 10.0 mi West 9.2 mph - N/A   Overcast